owner,sensor,date,latitude,longitude,vertical_datum,wind_speed,wind_to_direction,wind_speed_of_gust,qcFlag 
TABS,ioos:station:wmo:42046:1,2011-03-01T00:00:00Z,27.8903,-94.0367,4.0,5.197932281,339.8566339,6.09,'11111222,11111222,11111222' 
TABS,ioos:station:wmo:42046:1,2011-03-01T00:30:00Z,27.8903,-94.0367,4.0,5.879838433,340.4246692,6.91,'11111222,11111222,11111222' 
TABS,ioos:station:wmo:42046:1,2011-03-01T01:00:00Z,27.8903,-94.0367,4.0,5.880246593,342.8899368,6.93,'11111222,11111222,11111222' 
TABS,ioos:station:wmo:42046:1,2011-03-01T01:30:00Z,27.8903,-94.0367,4.0,6.444796351,345.1657611,7.53,'11111222,11111222,11111222' 
TABS,ioos:station:wmo:42046:1,2011-03-01T02:00:00Z,27.8903,-94.0367,4.0,7.27011004,341.3904305,8.39,'11111222,11111222,11111222' 
TABS,ioos:station:wmo:42046:1,2011-03-01T02:30:00Z,27.8903,-94.0367,4.0,7.432307852,339.0287446,8.55,'11111222,11111222,11111222' 
TABS,ioos:station:wmo:42046:1,2011-03-01T03:00:00Z,27.8903,-94.0367,4.0,7.858174088,339.2816514,9.29,'11111222,11111222,11111222' 
TABS,ioos:station:wmo:42046:1,2011-03-01T03:30:00Z,27.8903,-94.0367,4.0,8.750702829,343.2629559,10.41,'11111222,11111222,11111222' 
TABS,ioos:station:wmo:42046:1,2011-03-01T04:00:00Z,27.8903,-94.0367,4.0,10.49194453,350.5644225,12.57,'11111222,11111222,11111222' 
TABS,ioos:station:wmo:42046:1,2011-03-01T04:30:00Z,27.8903,-94.0367,4.0,10.83987546,349.2600222,12.67,'11111222,11111222,11111222' 
TABS,ioos:station:wmo:42046:1,2011-03-01T05:00:00Z,27.8903,-94.0367,4.0,11.10684924,357.9875271,13.64,'11111222,11111222,11111222' 
TABS,ioos:station:wmo:42046:1,2011-03-01T05:30:00Z,27.8903,-94.0367,4.0,11.05522501,3.007122093,13.13,'11111222,11111222,11111222' 
TABS,ioos:station:wmo:42046:1,2011-03-01T06:00:00Z,27.8903,-94.0367,4.0,11.34791611,12.93382575,13.45,'11111222,11111222,11111222' 
TABS,ioos:station:wmo:42046:1,2011-03-01T06:30:00Z,27.8903,-94.0367,4.0,11.8364057,18.41938784,13.88,'11111222,11111222,11111222' 
TABS,ioos:station:wmo:42046:1,2011-03-01T07:00:00Z,27.8903,-94.0367,4.0,11.23231499,19.77366254,13.1,'11111222,11111222,11111222' 
TABS,ioos:station:wmo:42046:1,2011-03-01T07:30:00Z,27.8903,-94.0367,4.0,11.24189486,20.78842781,13.51,'11111222,11111222,11111222' 
TABS,ioos:station:wmo:42046:1,2011-03-01T08:00:00Z,27.8903,-94.0367,4.0,11.43818167,19.82878314,13.16,'11111222,11111222,11111222' 
TABS,ioos:station:wmo:42046:1,2011-03-01T08:30:00Z,27.8903,-94.0367,4.0,11.21522626,21.00424063,13.46,'11111222,11111222,11111222' 
TABS,ioos:station:wmo:42046:1,2011-03-01T09:00:00Z,27.8903,-94.0367,4.0,10.86308428,26.16378639,12.79,'11111222,11111222,11111222' 
TABS,ioos:station:wmo:42046:1,2011-03-01T09:30:00Z,27.8903,-94.0367,4.0,10.63498002,26.95027754,12.48,'11111222,11111222,11111222' 
TABS,ioos:station:wmo:42046:1,2011-03-01T10:00:00Z,27.8903,-94.0367,4.0,10.76532396,25.8269029,12.71,'11111222,11111222,11111222' 
TABS,ioos:station:wmo:42046:1,2011-03-01T10:30:00Z,27.8903,-94.0367,4.0,10.53190391,26.68642522,12.14,'11111222,11111222,11111222' 
TABS,ioos:station:wmo:42046:1,2011-03-01T11:00:00Z,27.8903,-94.0367,4.0,10.41815723,35.70360635,12.16,'11111222,11111222,11111222' 
TABS,ioos:station:wmo:42046:1,2011-03-01T11:30:00Z,27.8903,-94.0367,4.0,9.865586653,38.41461694,11.86,'11111222,11111222,11111222' 
TABS,ioos:station:wmo:42046:1,2011-03-01T12:00:00Z,27.8903,-94.0367,4.0,9.326955559,35.00179302,10.92,'11111222,11111222,11111222' 
TABS,ioos:station:wmo:42046:1,2011-03-01T12:30:00Z,27.8903,-94.0367,4.0,9.259082028,32.02477586,10.81,'11111222,11111222,11111222' 
TABS,ioos:station:wmo:42046:1,2011-03-01T13:00:00Z,27.8903,-94.0367,4.0,8.825383844,31.18615286,10.63,'11111222,11111222,11111222' 
TABS,ioos:station:wmo:42046:1,2011-03-01T13:30:00Z,27.8903,-94.0367,4.0,8.794464168,30.85174283,11.09,'11111222,11111222,11111222' 
TABS,ioos:station:wmo:42046:1,2011-03-01T14:00:00Z,27.8903,-94.0367,4.0,9.095630819,30.08838666,10.54,'11111222,11111222,11111222' 
TABS,ioos:station:wmo:42046:1,2011-03-01T14:30:00Z,27.8903,-94.0367,4.0,8.889460051,34.22607132,10.68,'11111222,11111222,11111222' 
TABS,ioos:station:wmo:42046:1,2011-03-01T15:00:00Z,27.8903,-94.0367,4.0,8.525643671,32.25442464,9.81,'11111222,11111222,11111222' 
TABS,ioos:station:wmo:42046:1,2011-03-01T15:30:00Z,27.8903,-94.0367,4.0,8.264726251,41.81170412,9.74,'11111222,11111222,11111222' 
TABS,ioos:station:wmo:42046:1,2011-03-01T16:00:00Z,27.8903,-94.0367,4.0,8.031220331,37.86842759,9.56,'11111222,11111222,11111222' 
TABS,ioos:station:wmo:42046:1,2011-03-01T16:30:00Z,27.8903,-94.0367,4.0,8.156108141,36.57455489,9.63,'11111222,11111222,11111222' 
TABS,ioos:station:wmo:42046:1,2011-03-01T17:00:00Z,27.8903,-94.0367,4.0,8.209482322,35.78077973,9.51,'11111222,11111222,11111222' 
TABS,ioos:station:wmo:42046:1,2011-03-01T17:30:00Z,27.8903,-94.0367,4.0,8.090988815,32.9434254,9.65,'11111222,11111222,11111222' 
TABS,ioos:station:wmo:42046:1,2011-03-01T18:00:00Z,27.8903,-94.0367,4.0,7.536378441,32.86740923,9.01,'11111222,11111222,11111222' 
TABS,ioos:station:wmo:42046:1,2011-03-01T18:30:00Z,27.8903,-94.0367,4.0,7.462077459,36.6085398,8.88,'11111222,11111222,11111222' 
TABS,ioos:station:wmo:42046:1,2011-03-01T19:00:00Z,27.8903,-94.0367,4.0,6.932596916,32.45188976,8.39,'11111222,11111222,11111222' 
TABS,ioos:station:wmo:42046:1,2011-03-01T19:30:00Z,27.8903,-94.0367,4.0,7.162576352,34.82134219,8.77,'11111222,11111222,11111222' 
TABS,ioos:station:wmo:42046:1,2011-03-01T20:00:00Z,27.8903,-94.0367,4.0,6.796852213,32.38039153,8.1,'11111222,11111222,11111222' 
TABS,ioos:station:wmo:42046:1,2011-03-01T20:30:00Z,27.8903,-94.0367,4.0,6.398476381,33.59043613,8.31,'11111222,11111222,11111222' 
TABS,ioos:station:wmo:42046:1,2011-03-01T21:00:00Z,27.8903,-94.0367,4.0,6.04173816,29.66226311,8.02,'11111222,11111222,11111222' 
TABS,ioos:station:wmo:42046:1,2011-03-01T21:30:00Z,27.8903,-94.0367,4.0,6.055955746,32.45639333,7.36,'11111222,11111222,11111222' 
TABS,ioos:station:wmo:42046:1,2011-03-01T22:00:00Z,27.8903,-94.0367,4.0,5.898991439,26.04352858,7.32,'11111222,11111222,11111222' 
TABS,ioos:station:wmo:42046:1,2011-03-01T22:30:00Z,27.8903,-94.0367,4.0,5.021175161,44.0313994,6.18,'11111222,11111222,11111222' 
TABS,ioos:station:wmo:42046:1,2011-03-01T23:00:00Z,27.8903,-94.0367,4.0,5.040634881,35.96022265,6.31,'11111222,11111222,11111222' 
TABS,ioos:station:wmo:42046:1,2011-03-01T23:30:00Z,27.8903,-94.0367,4.0,5.234959408,51.20311771,7.01,'11111222,11111222,11111222' 
TABS,ioos:station:wmo:42046:1,2011-03-02T00:00:00Z,27.8903,-94.0367,4.0,4.928863966,51.17647105,6.54,'11111222,11111222,11111222' 
TABS,ioos:station:wmo:42046:1,2011-03-02T00:30:00Z,27.8903,-94.0367,4.0,4.835969396,54.76498739,6.56,'11111222,11111222,11111222' 
TABS,ioos:station:wmo:42046:1,2011-03-02T01:00:00Z,27.8903,-94.0367,4.0,4.196617686,54.11281858,5.35,'11111222,11111222,11111222' 
TABS,ioos:station:wmo:42046:1,2011-03-02T01:30:00Z,27.8903,-94.0367,4.0,4.425562111,60.19053458,5.72,'11111222,11111222,11111222' 
TABS,ioos:station:wmo:42046:1,2011-03-02T02:00:00Z,27.8903,-94.0367,4.0,4.062142292,73.25984409,5.11,'11111222,11111222,11111222' 
TABS,ioos:station:wmo:42046:1,2011-03-02T02:30:00Z,27.8903,-94.0367,4.0,3.808648054,67.94680298,4.58,'11111222,11111222,11111222' 
TABS,ioos:station:wmo:42046:1,2011-03-02T03:00:00Z,27.8903,-94.0367,4.0,3.929834602,61.08665323,5.0,'11111222,11111222,11111222' 
TABS,ioos:station:wmo:42046:1,2011-03-02T03:30:00Z,27.8903,-94.0367,4.0,3.733630941,57.24598853,5.03,'11111222,11111222,11111222' 
TABS,ioos:station:wmo:42046:1,2011-03-02T04:00:00Z,27.8903,-94.0367,4.0,4.200488067,64.77673447,5.23,'11111222,11111222,11111222' 
TABS,ioos:station:wmo:42046:1,2011-03-02T04:30:00Z,27.8903,-94.0367,4.0,4.364401448,70.73435982,5.4,'11111222,11111222,11111222' 
TABS,ioos:station:wmo:42046:1,2011-03-02T05:00:00Z,27.8903,-94.0367,4.0,4.2137157,80.02312977,5.49,'11111222,11111222,11111222' 
TABS,ioos:station:wmo:42046:1,2011-03-02T05:30:00Z,27.8903,-94.0367,4.0,5.301245137,82.84776815,6.48,'11111222,11111222,11111222' 
TABS,ioos:station:wmo:42046:1,2011-03-02T06:00:00Z,27.8903,-94.0367,4.0,4.765259699,84.09757585,5.88,'11111222,11111222,11111222' 
TABS,ioos:station:wmo:42046:1,2011-03-02T06:30:00Z,27.8903,-94.0367,4.0,4.661298102,88.64735788,6.42,'11111222,11111222,11111222' 
TABS,ioos:station:wmo:42046:1,2011-03-02T07:00:00Z,27.8903,-94.0367,4.0,4.943622154,99.9009565,5.96,'11111222,11111222,11111222' 
TABS,ioos:station:wmo:42046:1,2011-03-02T07:30:00Z,27.8903,-94.0367,4.0,4.329722855,93.84089441,5.54,'11111222,11111222,11111222' 
TABS,ioos:station:wmo:42046:1,2011-03-02T08:00:00Z,27.8903,-94.0367,4.0,4.500011111,86.17704374,5.89,'11111222,11111222,11111222' 
TABS,ioos:station:wmo:42046:1,2011-03-02T08:30:00Z,27.8903,-94.0367,4.0,4.893311762,87.8914887,6.17,'11111222,11111222,11111222' 
TABS,ioos:station:wmo:42046:1,2011-03-02T09:00:00Z,27.8903,-94.0367,4.0,4.480680752,95.50741943,5.95,'11111222,11111222,11111222' 
TABS,ioos:station:wmo:42046:1,2011-03-02T09:30:00Z,27.8903,-94.0367,4.0,3.931462832,85.62323893,4.78,'11111222,11111222,11111222' 
TABS,ioos:station:wmo:42046:1,2011-03-02T10:00:00Z,27.8903,-94.0367,4.0,4.180574123,71.3046344,5.52,'11111222,11111222,11111222' 
TABS,ioos:station:wmo:42046:1,2011-03-02T10:30:00Z,27.8903,-94.0367,4.0,4.358279477,70.56688202,5.61,'11111222,11111222,11111222' 
TABS,ioos:station:wmo:42046:1,2011-03-02T11:00:00Z,27.8903,-94.0367,4.0,5.133429653,74.636816,6.3,'11111222,11111222,11111222' 
TABS,ioos:station:wmo:42046:1,2011-03-02T11:30:00Z,27.8903,-94.0367,4.0,4.399659078,96.65698624,5.52,'11111222,11111222,11111222' 
TABS,ioos:station:wmo:42046:1,2011-03-02T12:00:00Z,27.8903,-94.0367,4.0,3.691639202,88.29208448,4.88,'11111222,11111222,11111222' 
TABS,ioos:station:wmo:42046:1,2011-03-02T12:30:00Z,27.8903,-94.0367,4.0,3.943703843,75.61100114,5.03,'11111222,11111222,11111222' 
TABS,ioos:station:wmo:42046:1,2011-03-02T13:00:00Z,27.8903,-94.0367,4.0,3.094672842,86.85056603,4.52,'11111222,11111222,11111222' 
TABS,ioos:station:wmo:42046:1,2011-03-02T13:30:00Z,27.8903,-94.0367,4.0,2.817126195,82.04207246,4.04,'11111222,11111222,11111222' 
TABS,ioos:station:wmo:42046:1,2011-03-02T14:00:00Z,27.8903,-94.0367,4.0,2.682685222,69.94353125,3.82,'11111222,11111222,11111222' 
TABS,ioos:station:wmo:42046:1,2011-03-02T14:30:00Z,27.8903,-94.0367,4.0,3.270061162,90.35084863,4.1,'11111222,11111222,11111222' 
TABS,ioos:station:wmo:42046:1,2011-03-02T15:00:00Z,27.8903,-94.0367,4.0,3.033183146,80.31989819,3.8,'11111222,11111222,11111222' 
TABS,ioos:station:wmo:42046:1,2011-03-02T15:30:00Z,27.8903,-94.0367,4.0,3.223491895,70.04689069,4.19,'11111222,11111222,11111222' 
TABS,ioos:station:wmo:42046:1,2011-03-02T16:00:00Z,27.8903,-94.0367,4.0,2.960675599,63.95387169,4.01,'11111222,11111222,11111222' 
TABS,ioos:station:wmo:42046:1,2011-03-02T16:30:00Z,27.8903,-94.0367,4.0,3.2938731,65.61326501,4.49,'11111222,11111222,11111222' 
TABS,ioos:station:wmo:42046:1,2011-03-02T17:00:00Z,27.8903,-94.0367,4.0,4.678899443,56.24166429,5.69,'11111222,11111222,11111222' 
TABS,ioos:station:wmo:42046:1,2011-03-02T17:30:00Z,27.8903,-94.0367,4.0,4.687216658,64.19994435,5.48,'11111222,11111222,11111222' 
TABS,ioos:station:wmo:42046:1,2011-03-02T18:00:00Z,27.8903,-94.0367,4.0,4.719163061,57.72401024,5.36,'11111222,11111222,11111222' 
TABS,ioos:station:wmo:42046:1,2011-03-02T18:30:00Z,27.8903,-94.0367,4.0,4.888363734,54.91161994,5.69,'11111222,11111222,11111222' 
TABS,ioos:station:wmo:42046:1,2011-03-02T19:00:00Z,27.8903,-94.0367,4.0,4.71793387,46.45967704,5.36,'11111222,11111222,11111222' 
TABS,ioos:station:wmo:42046:1,2011-03-02T19:30:00Z,27.8903,-94.0367,4.0,4.92327127,40.38639981,5.98,'11111222,11111222,11111222' 
TABS,ioos:station:wmo:42046:1,2011-03-02T20:00:00Z,27.8903,-94.0367,4.0,4.709564736,40.52181521,5.88,'11111222,11111222,11111222' 
TABS,ioos:station:wmo:42046:1,2011-03-02T20:30:00Z,27.8903,-94.0367,4.0,5.297593793,31.0191185,6.15,'11111222,11111222,11111222' 
TABS,ioos:station:wmo:42046:1,2011-03-02T21:00:00Z,27.8903,-94.0367,4.0,4.891022388,42.43097975,5.89,'11111222,11111222,11111222' 
TABS,ioos:station:wmo:42046:1,2011-03-02T21:30:00Z,27.8903,-94.0367,4.0,5.297858058,59.61087242,6.18,'11111222,11111222,11111222' 
TABS,ioos:station:wmo:42046:1,2011-03-02T22:00:00Z,27.8903,-94.0367,4.0,5.947133763,57.2181205,6.71,'11111222,11111222,11111222' 
TABS,ioos:station:wmo:42046:1,2011-03-02T22:30:00Z,27.8903,-94.0367,4.0,5.932832376,58.15805986,6.94,'11111222,11111222,11111222' 
TABS,ioos:station:wmo:42046:1,2011-03-02T23:00:00Z,27.8903,-94.0367,4.0,5.58764709,61.92112604,6.36,'11111222,11111222,11111222' 
TABS,ioos:station:wmo:42046:1,2011-03-02T23:30:00Z,27.8903,-94.0367,4.0,5.219434835,66.87311277,6.3,'11111222,11111222,11111222' 
TABS,ioos:station:wmo:42046:1,2011-03-03T00:00:00Z,27.8903,-94.0367,4.0,4.951949111,74.41976332,5.97,'11111222,11111222,11111222' 
TABS,ioos:station:wmo:42046:1,2011-03-03T00:30:00Z,27.8903,-94.0367,4.0,4.985498972,65.59372637,5.92,'11111222,11111222,11111222' 
TABS,ioos:station:wmo:42046:1,2011-03-03T01:00:00Z,27.8903,-94.0367,4.0,3.649232796,67.44015449,4.66,'11111222,11111222,11111222' 
TABS,ioos:station:wmo:42046:1,2011-03-03T01:30:00Z,27.8903,-94.0367,4.0,4.663571593,65.68786284,5.43,'11111222,11111222,11111222' 
TABS,ioos:station:wmo:42046:1,2011-03-03T02:00:00Z,27.8903,-94.0367,4.0,4.859557593,61.48328321,6.05,'11111222,11111222,11111222' 
TABS,ioos:station:wmo:42046:1,2011-03-03T02:30:00Z,27.8903,-94.0367,4.0,4.842581956,66.76997143,5.85,'11111222,11111222,11111222' 
TABS,ioos:station:wmo:42046:1,2011-03-03T03:00:00Z,27.8903,-94.0367,4.0,4.253292842,71.77766735,5.14,'11111222,11111222,11111222' 
TABS,ioos:station:wmo:42046:1,2011-03-03T03:30:00Z,27.8903,-94.0367,4.0,4.222380845,70.4918466,5.58,'11111222,11111222,11111222' 
TABS,ioos:station:wmo:42046:1,2011-03-03T04:00:00Z,27.8903,-94.0367,4.0,4.475321218,85.25721246,5.52,'11111222,11111222,11111222' 
TABS,ioos:station:wmo:42046:1,2011-03-03T04:30:00Z,27.8903,-94.0367,4.0,4.12019417,89.44332816,5.39,'11111222,11111222,11111222' 
TABS,ioos:station:wmo:42046:1,2011-03-03T05:00:00Z,27.8903,-94.0367,4.0,3.299469654,82.33610234,4.4,'11111222,11111222,11111222' 
TABS,ioos:station:wmo:42046:1,2011-03-03T05:30:00Z,27.8903,-94.0367,4.0,2.828161947,83.50279595,3.34,'11111222,11111222,11111222' 
TABS,ioos:station:wmo:42046:1,2011-03-03T06:00:00Z,27.8903,-94.0367,4.0,2.377751038,74.38521416,3.12,'11111222,11111222,11111222' 
TABS,ioos:station:wmo:42046:1,2011-03-03T06:30:00Z,27.8903,-94.0367,4.0,2.406511999,71.33880471,2.95,'11111222,11111222,11111222' 
TABS,ioos:station:wmo:42046:1,2011-03-03T07:00:00Z,27.8903,-94.0367,4.0,2.904617014,67.31907251,3.74,'11111222,11111222,11111222' 
TABS,ioos:station:wmo:42046:1,2011-03-03T07:30:00Z,27.8903,-94.0367,4.0,3.19820262,73.09446052,3.83,'11111222,11111222,11111222' 
TABS,ioos:station:wmo:42046:1,2011-03-03T08:00:00Z,27.8903,-94.0367,4.0,3.099032107,71.56467337,3.76,'11111222,11111222,11111222' 
TABS,ioos:station:wmo:42046:1,2011-03-03T08:30:00Z,27.8903,-94.0367,4.0,2.221440974,46.82376988,2.78,'11111222,11111222,11111222' 
TABS,ioos:station:wmo:42046:1,2011-03-03T09:00:00Z,27.8903,-94.0367,4.0,2.42860042,15.52386424,2.75,'11111222,11111222,11111222' 
TABS,ioos:station:wmo:42046:1,2011-03-03T09:30:00Z,27.8903,-94.0367,4.0,2.810284683,359.1842482,3.2,'11111222,11144222,11111222' 
TABS,ioos:station:wmo:42046:1,2011-03-03T10:00:00Z,27.8903,-94.0367,4.0,2.961502997,346.5266629,3.74,'11111222,11111222,11111222' 
TABS,ioos:station:wmo:42046:1,2011-03-03T10:30:00Z,27.8903,-94.0367,4.0,2.648641161,339.4437924,4.35,'11111222,11111222,11111222' 
TABS,ioos:station:wmo:42046:1,2011-03-03T11:00:00Z,27.8903,-94.0367,4.0,1.986001007,72.11206734,2.49,'11111222,11111222,11111222' 
TABS,ioos:station:wmo:42046:1,2011-03-03T11:30:00Z,27.8903,-94.0367,4.0,2.259424706,77.99340608,2.79,'11111222,11111222,11111222' 
TABS,ioos:station:wmo:42046:1,2011-03-03T12:00:00Z,27.8903,-94.0367,4.0,2.047071078,69.70565281,2.51,'11111222,11111222,11111222' 
TABS,ioos:station:wmo:42046:1,2011-03-03T12:30:00Z,27.8903,-94.0367,4.0,2.362392855,49.6351369,3.42,'11111222,11111222,11111222' 
TABS,ioos:station:wmo:42046:1,2011-03-03T13:00:00Z,27.8903,-94.0367,4.0,4.785498929,75.35355439,5.28,'11111222,11111222,11111222' 
TABS,ioos:station:wmo:42046:1,2011-03-03T13:30:00Z,27.8903,-94.0367,4.0,4.153769373,78.47325994,4.73,'11111222,11111222,11111222' 
TABS,ioos:station:wmo:42046:1,2011-03-03T14:00:00Z,27.8903,-94.0367,4.0,4.660751012,77.48413454,5.31,'11111222,11111222,11111222' 
TABS,ioos:station:wmo:42046:1,2011-03-03T14:30:00Z,27.8903,-94.0367,4.0,4.930821433,76.27337628,5.65,'11111222,11111222,11111222' 
TABS,ioos:station:wmo:42046:1,2011-03-03T15:00:00Z,27.8903,-94.0367,4.0,4.793078343,78.68967306,5.58,'11111222,11111222,11111222' 
TABS,ioos:station:wmo:42046:1,2011-03-03T15:30:00Z,27.8903,-94.0367,4.0,4.993155315,78.91471371,5.9,'11111222,11111222,11111222' 
TABS,ioos:station:wmo:42046:1,2011-03-03T16:00:00Z,27.8903,-94.0367,4.0,4.964876635,80.72699899,5.54,'11111222,11111222,11111222' 
TABS,ioos:station:wmo:42046:1,2011-03-03T16:30:00Z,27.8903,-94.0367,4.0,4.899387717,82.72952744,5.58,'11111222,11111222,11111222' 
TABS,ioos:station:wmo:42046:1,2011-03-03T17:00:00Z,27.8903,-94.0367,4.0,5.222422809,86.04685374,6.12,'11111222,11111222,11111222' 
TABS,ioos:station:wmo:42046:1,2011-03-03T17:30:00Z,27.8903,-94.0367,4.0,5.476906061,85.49657893,6.03,'11111222,11111222,11111222' 
TABS,ioos:station:wmo:42046:1,2011-03-03T18:00:00Z,27.8903,-94.0367,4.0,4.426657882,78.00429041,5.16,'11111222,11111222,11111222' 
TABS,ioos:station:wmo:42046:1,2011-03-03T18:30:00Z,27.8903,-94.0367,4.0,4.502543725,84.26367526,5.04,'11111222,11111222,11111222' 
TABS,ioos:station:wmo:42046:1,2011-03-03T19:00:00Z,27.8903,-94.0367,4.0,4.53203045,85.8238986,5.44,'11111222,11111222,11111222' 
TABS,ioos:station:wmo:42046:1,2011-03-03T19:30:00Z,27.8903,-94.0367,4.0,4.460100896,89.61418818,5.47,'11111222,11111222,11111222' 
TABS,ioos:station:wmo:42046:1,2011-03-03T20:00:00Z,27.8903,-94.0367,4.0,5.192465696,88.23379859,5.74,'11111222,11111222,11111222' 
TABS,ioos:station:wmo:42046:1,2011-03-03T20:30:00Z,27.8903,-94.0367,4.0,4.590697115,83.36996307,5.15,'11111222,11111222,11111222' 
TABS,ioos:station:wmo:42046:1,2011-03-03T21:00:00Z,27.8903,-94.0367,4.0,4.737773739,85.0350882,5.28,'11111222,11111222,11111222' 
TABS,ioos:station:wmo:42046:1,2011-03-03T21:30:00Z,27.8903,-94.0367,4.0,4.531180862,79.83047453,5.04,'11111222,11111222,11111222' 
TABS,ioos:station:wmo:42046:1,2011-03-03T22:00:00Z,27.8903,-94.0367,4.0,4.583153936,92.12613931,5.23,'11111222,11111222,11111222' 
TABS,ioos:station:wmo:42046:1,2011-03-03T22:30:00Z,27.8903,-94.0367,4.0,4.000124998,97.03659022,6.05,'11111222,11111222,11111222' 
TABS,ioos:station:wmo:42046:1,2011-03-03T23:00:00Z,27.8903,-94.0367,4.0,4.030446625,89.1466052,4.55,'11111222,11111222,11111222' 
TABS,ioos:station:wmo:42046:1,2011-03-03T23:30:00Z,27.8903,-94.0367,4.0,3.921543064,88.39221492,4.48,'11111222,11111222,11111222' 
TABS,ioos:station:wmo:42046:1,2011-03-04T00:00:00Z,27.8903,-94.0367,4.0,3.919349436,80.89777537,4.46,'11111222,11111222,11111222' 
TABS,ioos:station:wmo:42046:1,2011-03-04T00:30:00Z,27.8903,-94.0367,4.0,3.395541194,81.70245352,3.88,'11111222,11111222,11111222' 
TABS,ioos:station:wmo:42046:1,2011-03-04T01:00:00Z,27.8903,-94.0367,4.0,3.482125788,81.07829829,3.98,'11111222,11111222,11111222' 
TABS,ioos:station:wmo:42046:1,2011-03-04T01:30:00Z,27.8903,-94.0367,4.0,3.34388995,80.70629222,3.83,'11111222,11111222,11111222' 
TABS,ioos:station:wmo:42046:1,2011-03-04T02:00:00Z,27.8903,-94.0367,4.0,3.347237667,86.23105819,3.91,'11111222,11111222,11111222' 
TABS,ioos:station:wmo:42046:1,2011-03-04T02:30:00Z,27.8903,-94.0367,4.0,3.503441165,99.03254122,3.86,'11111222,11111222,11111222' 
TABS,ioos:station:wmo:42046:1,2011-03-04T03:00:00Z,27.8903,-94.0367,4.0,2.846348538,93.82787679,3.23,'11111222,11111222,11111222' 
TABS,ioos:station:wmo:42046:1,2011-03-04T03:30:00Z,27.8903,-94.0367,4.0,2.54125953,88.19558818,2.95,'11111222,11111222,11111222' 
TABS,ioos:station:wmo:42046:1,2011-03-04T04:00:00Z,27.8903,-94.0367,4.0,3.165390971,104.8268662,3.64,'11111222,11111222,11111222' 
TABS,ioos:station:wmo:42046:1,2011-03-04T04:30:00Z,27.8903,-94.0367,4.0,3.059182897,105.3540629,3.61,'11111222,11111222,11111222' 
TABS,ioos:station:wmo:42046:1,2011-03-04T05:00:00Z,27.8903,-94.0367,4.0,2.960439157,109.5370302,3.36,'11111222,11111222,11111222' 
TABS,ioos:station:wmo:42046:1,2011-03-04T05:30:00Z,27.8903,-94.0367,4.0,3.058251134,113.7155634,3.49,'11111222,11111222,11111222' 
TABS,ioos:station:wmo:42046:1,2011-03-04T06:00:00Z,27.8903,-94.0367,4.0,3.443617284,134.8826657,3.9,'11111222,11111222,11111222' 
TABS,ioos:station:wmo:42046:1,2011-03-04T06:30:00Z,27.8903,-94.0367,4.0,3.381508539,129.4804823,4.2,'11111222,11111222,11111222' 
TABS,ioos:station:wmo:42046:1,2011-03-04T07:00:00Z,27.8903,-94.0367,4.0,3.186753834,123.7402753,3.77,'11111222,11111222,11111222' 
TABS,ioos:station:wmo:42046:1,2011-03-04T07:30:00Z,27.8903,-94.0367,4.0,2.354761134,134.4841527,2.61,'11111222,11111222,11111222' 
TABS,ioos:station:wmo:42046:1,2011-03-04T08:00:00Z,27.8903,-94.0367,4.0,2.610172408,127.528774,2.9,'11111222,11111222,11111222' 
TABS,ioos:station:wmo:42046:1,2011-03-04T08:30:00Z,27.8903,-94.0367,4.0,2.733056897,128.4636973,3.06,'11111222,11111222,11111222' 
TABS,ioos:station:wmo:42046:1,2011-03-04T09:00:00Z,27.8903,-94.0367,4.0,2.881405907,141.3404926,3.15,'11111222,11111222,11111222' 
TABS,ioos:station:wmo:42046:1,2011-03-04T09:30:00Z,27.8903,-94.0367,4.0,2.451530134,131.3621376,2.73,'11111222,11111222,11111222' 
TABS,ioos:station:wmo:42046:1,2011-03-04T10:00:00Z,27.8903,-94.0367,4.0,2.628402557,144.1331884,3.0,'11111222,11111222,11111222' 
TABS,ioos:station:wmo:42046:1,2011-03-04T10:30:00Z,27.8903,-94.0367,4.0,4.224133047,146.6864188,4.77,'11111222,11111222,11111222' 
TABS,ioos:station:wmo:42046:1,2011-03-04T11:00:00Z,27.8903,-94.0367,4.0,5.600446411,150.8264328,6.36,'11111222,11111222,11111222' 
TABS,ioos:station:wmo:42046:1,2011-03-04T11:30:00Z,27.8903,-94.0367,4.0,3.609348972,154.2161546,4.1,'11111222,11111222,11111222' 
TABS,ioos:station:wmo:42046:1,2011-03-04T12:00:00Z,27.8903,-94.0367,4.0,3.934018302,165.575441,4.42,'11111222,11111222,11111222' 
TABS,ioos:station:wmo:42046:1,2011-03-04T12:30:00Z,27.8903,-94.0367,4.0,4.106689664,166.9115083,4.83,'11111222,11111222,11111222' 
TABS,ioos:station:wmo:42046:1,2011-03-04T13:00:00Z,27.8903,-94.0367,4.0,4.362315899,173.02183,5.03,'11111222,11111222,11111222' 
TABS,ioos:station:wmo:42046:1,2011-03-04T13:30:00Z,27.8903,-94.0367,4.0,5.003079052,174.4947455,5.77,'11111222,11111222,11111222' 
TABS,ioos:station:wmo:42046:1,2011-03-04T14:00:00Z,27.8903,-94.0367,4.0,5.972143669,178.4650163,6.98,'11111222,11111222,11111222' 
TABS,ioos:station:wmo:42046:1,2011-03-04T14:30:00Z,27.8903,-94.0367,4.0,5.197355097,172.2598874,6.27,'11111222,11111222,11111222' 
TABS,ioos:station:wmo:42046:1,2011-03-04T15:00:00Z,27.8903,-94.0367,4.0,6.287924936,169.3693851,7.97,'11111222,11111222,11111222' 
TABS,ioos:station:wmo:42046:1,2011-03-04T15:30:00Z,27.8903,-94.0367,4.0,5.62176129,167.5709227,6.91,'11111222,11111222,11111222' 
TABS,ioos:station:wmo:42046:1,2011-03-04T16:00:00Z,27.8903,-94.0367,4.0,6.028764384,169.1003508,6.84,'11111222,11111222,11111222' 
TABS,ioos:station:wmo:42046:1,2011-03-04T16:30:00Z,27.8903,-94.0367,4.0,5.270237186,172.9156643,6.23,'11111222,11111222,11111222' 
TABS,ioos:station:wmo:42046:1,2011-03-04T17:00:00Z,27.8903,-94.0367,4.0,5.679788728,169.2442506,6.64,'11111222,11111222,11111222' 
TABS,ioos:station:wmo:42046:1,2011-03-04T17:30:00Z,27.8903,-94.0367,4.0,5.90978849,163.2824329,6.96,'11111222,11111222,11111222' 
TABS,ioos:station:wmo:42046:1,2011-03-04T18:00:00Z,27.8903,-94.0367,4.0,5.138423883,168.2092073,6.41,'11111222,11111222,11111222' 
TABS,ioos:station:wmo:42046:1,2011-03-04T18:30:00Z,27.8903,-94.0367,4.0,5.995865242,165.3150478,6.97,'11111222,11111222,11111222' 